Time,TemperatureF,DewpointF,PressureIn,WindDirection,WindDirectionDegrees,WindSpeedMPH,WindSpeedGustMPH,Humidity,HourlyPrecipIn,Conditions,Clouds,dailyrainin,SoftwareType,DateUTC
2013-03-22 00:02:00,11.0,-1.0,30.05,North,-999,-999.0,-999.0,58,-99.99,,,-99.99,,2013-03-22 05:02:00,
2013-03-22 00:12:00,11.0,-1.0,30.05,North,-999,-999.0,-999.0,58,-99.99,,,-99.99,,2013-03-22 05:12:00,
2013-03-22 00:22:00,11.0,-1.0,30.05,North,-999,-999.0,-999.0,58,-99.99,,,-99.99,,2013-03-22 05:22:00,
2013-03-22 00:32:00,11.0,-1.0,30.05,North,-999,-999.0,-999.0,58,-99.99,,,-99.99,,2013-03-22 05:32:00,
2013-03-22 00:42:00,11.0,-1.0,30.05,North,-999,-999.0,-999.0,58,-99.99,,,-99.99,,2013-03-22 05:42:00,
2013-03-22 00:52:00,11.0,-1.0,30.05,North,-999,-999.0,-999.0,58,-99.99,,,-99.99,,2013-03-22 05:52:00,
2013-03-22 01:02:00,11.0,-1.0,30.02,North,-999,-999.0,-999.0,58,-99.99,,,-99.99,,2013-03-22 06:02:00,
2013-03-22 01:13:00,11.0,-1.0,30.02,North,-999,-999.0,-999.0,58,-99.99,,,-99.99,,2013-03-22 06:13:00,
2013-03-22 01:22:00,10.0,-2.0,30.05,North,-999,-999.0,-999.0,58,-99.99,,,-99.99,,2013-03-22 06:22:00,
2013-03-22 01:32:00,9.0,-3.0,30.05,North,-999,-999.0,-999.0,58,-99.99,,,-99.99,,2013-03-22 06:32:00,
2013-03-22 01:42:00,9.0,-3.0,30.05,North,-999,-999.0,-999.0,58,-99.99,,,-99.99,,2013-03-22 06:42:00,
2013-03-22 01:52:00,10.0,-2.0,30.05,North,-999,-999.0,-999.0,58,-99.99,,,-99.99,,2013-03-22 06:52:00,
2013-03-22 02:02:00,9.0,-3.0,30.05,North,-999,-999.0,-999.0,58,-99.99,,,-99.99,,2013-03-22 07:02:00,
2013-03-22 02:12:00,9.0,-3.0,30.05,North,-999,-999.0,-999.0,58,-99.99,,,-99.99,,2013-03-22 07:12:00,
2013-03-22 02:22:00,10.0,-2.0,30.05,North,-999,-999.0,-999.0,58,-99.99,,,-99.99,,2013-03-22 07:22:00,
2013-03-22 02:32:00,10.0,-2.0,30.05,North,-999,-999.0,-999.0,58,-99.99,,,-99.99,,2013-03-22 07:32:00,
2013-03-22 02:42:00,10.0,-2.0,30.05,North,-999,-999.0,-999.0,58,-99.99,,,-99.99,,2013-03-22 07:42:00,
2013-03-22 02:52:00,10.0,-2.0,30.05,North,-999,-999.0,-999.0,58,-99.99,,,-99.99,,2013-03-22 07:52:00,
2013-03-22 03:03:00,10.0,-2.0,30.05,North,-999,-999.0,-999.0,58,-99.99,,,-99.99,,2013-03-22 08:03:00,
2013-03-22 03:12:00,10.0,-2.0,30.05,North,-999,-999.0,-999.0,58,-99.99,,,-99.99,,2013-03-22 08:12:00,
2013-03-22 03:22:00,10.0,-2.0,30.05,North,-999,-999.0,-999.0,58,-99.99,,,-99.99,,2013-03-22 08:22:00,
2013-03-22 03:32:00,10.0,-2.0,30.05,North,-999,-999.0,-999.0,58,-99.99,,,-99.99,,2013-03-22 08:32:00,
2013-03-22 03:42:00,10.0,-2.0,30.05,North,-999,-999.0,-999.0,58,-99.99,,,-99.99,,2013-03-22 08:42:00,
2013-03-22 03:52:00,10.0,-2.0,30.05,North,-999,-999.0,-999.0,58,-99.99,,,-99.99,,2013-03-22 08:52:00,
2013-03-22 04:12:00,10.0,-2.0,30.05,North,-999,-999.0,-999.0,58,-99.99,,,-99.99,,2013-03-22 09:12:00,
2013-03-22 04:22:00,10.0,-2.0,30.05,North,-999,-999.0,-999.0,58,-99.99,,,-99.99,,2013-03-22 09:22:00,
2013-03-22 04:32:00,9.0,-3.0,30.05,North,-999,-999.0,-999.0,58,-99.99,,,-99.99,,2013-03-22 09:32:00,
2013-03-22 04:42:00,9.0,-3.0,30.05,North,-999,-999.0,-999.0,58,-99.99,,,-99.99,,2013-03-22 09:42:00,
2013-03-22 04:53:00,10.0,-2.0,30.05,North,-999,-999.0,-999.0,58,-99.99,,,-99.99,,2013-03-22 09:53:00,
2013-03-22 05:03:00,9.0,-3.0,30.05,North,-999,-999.0,-999.0,58,-99.99,,,-99.99,,2013-03-22 10:03:00,
2013-03-22 05:12:00,9.0,-3.0,30.05,North,-999,-999.0,-999.0,58,-99.99,,,-99.99,,2013-03-22 10:12:00,
2013-03-22 05:22:00,9.0,-3.0,30.05,North,-999,-999.0,-999.0,58,-99.99,,,-99.99,,2013-03-22 10:22:00,
2013-03-22 05:32:00,9.0,-3.0,30.05,North,-999,-999.0,-999.0,58,-99.99,,,-99.99,,2013-03-22 10:32:00,
2013-03-22 05:42:00,9.0,-3.0,30.05,North,-999,-999.0,-999.0,58,-99.99,,,-99.99,,2013-03-22 10:42:00,
2013-03-22 05:52:00,9.0,-3.0,30.05,North,-999,-999.0,-999.0,58,-99.99,,,-99.99,,2013-03-22 10:52:00,
2013-03-22 06:03:00,9.0,-3.0,30.05,North,-999,-999.0,-999.0,58,-99.99,,,-99.99,,2013-03-22 11:03:00,
2013-03-22 06:12:00,9.0,-3.0,30.05,North,-999,-999.0,-999.0,58,-99.99,,,-99.99,,2013-03-22 11:12:00,
2013-03-22 06:22:00,9.0,-3.0,30.05,North,-999,-999.0,-999.0,58,-99.99,,,-99.99,,2013-03-22 11:22:00,
2013-03-22 06:32:00,9.0,-3.0,30.05,North,-999,-999.0,-999.0,58,-99.99,,,-99.99,,2013-03-22 11:32:00,
2013-03-22 06:42:00,9.0,-3.0,30.05,North,-999,-999.0,-999.0,58,-99.99,,,-99.99,,2013-03-22 11:42:00,
2013-03-22 06:52:00,8.0,-4.0,30.05,North,-999,-999.0,-999.0,58,-99.99,,,-99.99,,2013-03-22 11:52:00,
2013-03-22 07:02:00,8.0,-4.0,30.02,North,-999,-999.0,-999.0,58,-99.99,,,-99.99,,2013-03-22 12:02:00,
2013-03-22 07:12:00,8.0,-4.0,30.02,North,-999,-999.0,-999.0,58,-99.99,,,-99.99,,2013-03-22 12:12:00,
2013-03-22 07:22:00,6.0,-6.0,30.05,North,-999,-999.0,-999.0,58,-99.99,,,-99.99,,2013-03-22 12:22:00,
2013-03-22 07:32:00,7.0,-5.0,30.05,North,-999,-999.0,-999.0,58,-99.99,,,-99.99,,2013-03-22 12:32:00,
2013-03-22 07:42:00,7.0,-5.0,30.05,North,-999,-999.0,-999.0,58,-99.99,,,-99.99,,2013-03-22 12:42:00,
2013-03-22 07:52:00,7.0,-5.0,30.02,North,-999,-999.0,-999.0,58,-99.99,,,-99.99,,2013-03-22 12:52:00,
2013-03-22 08:02:00,8.0,-4.0,30.05,North,-999,-999.0,-999.0,58,-99.99,,,-99.99,,2013-03-22 13:02:00,
2013-03-22 08:12:00,8.0,-4.0,30.05,North,-999,-999.0,-999.0,58,-99.99,,,-99.99,,2013-03-22 13:12:00,
2013-03-22 08:22:00,10.0,-2.0,30.05,North,-999,-999.0,-999.0,58,-99.99,,,-99.99,,2013-03-22 13:22:00,
2013-03-22 08:32:00,13.0,1.0,30.05,North,-999,-999.0,-999.0,58,-99.99,,,-99.99,,2013-03-22 13:32:00,
2013-03-22 08:42:00,13.0,1.0,30.05,North,-999,-999.0,-999.0,58,-99.99,,,-99.99,,2013-03-22 13:42:00,
2013-03-22 08:52:00,15.0,6.0,30.05,North,-999,-999.0,-999.0,66,-99.99,,,-99.99,,2013-03-22 13:52:00,
2013-03-22 09:02:00,17.0,7.0,30.05,North,-999,-999.0,-999.0,64,-99.99,,,-99.99,,2013-03-22 14:02:00,
2013-03-22 09:12:00,17.0,7.0,30.05,North,-999,-999.0,-999.0,64,-99.99,,,-99.99,,2013-03-22 14:12:00,
2013-03-22 09:22:00,18.0,7.0,30.05,North,-999,-999.0,-999.0,61,-99.99,,,-99.99,,2013-03-22 14:22:00,
2013-03-22 09:32:00,19.0,7.0,30.05,North,-999,-999.0,-999.0,59,-99.99,,,-99.99,,2013-03-22 14:32:00,
2013-03-22 09:42:00,19.0,7.0,30.05,North,-999,-999.0,-999.0,59,-99.99,,,-99.99,,2013-03-22 14:42:00,
2013-03-22 09:52:00,19.0,7.0,30.05,North,-999,-999.0,-999.0,59,-99.99,,,-99.99,,2013-03-22 14:52:00,
2013-03-22 10:02:00,19.0,7.0,30.05,North,-999,-999.0,-999.0,59,-99.99,,,-99.99,,2013-03-22 15:02:00,
2013-03-22 10:22:00,23.0,9.0,30.05,North,-999,-999.0,-999.0,55,-99.99,,,-99.99,,2013-03-22 15:22:00,
2013-03-22 10:33:00,24.0,10.0,30.05,North,-999,-999.0,-999.0,55,-99.99,,,-99.99,,2013-03-22 15:33:00,
2013-03-22 10:43:00,24.0,10.0,30.05,North,-999,-999.0,-999.0,55,-99.99,,,-99.99,,2013-03-22 15:43:00,
2013-03-22 10:53:00,25.0,10.0,30.05,North,-999,-999.0,-999.0,52,-99.99,,,-99.99,,2013-03-22 15:53:00,
2013-03-22 11:02:00,26.0,10.0,30.05,North,-999,-999.0,-999.0,51,-99.99,,,-99.99,,2013-03-22 16:02:00,
2013-03-22 11:13:00,28.0,11.0,30.02,North,-999,-999.0,-999.0,49,-99.99,,,-99.99,,2013-03-22 16:13:00,
2013-03-22 11:22:00,28.0,11.0,30.02,North,-999,-999.0,-999.0,49,-99.99,,,-99.99,,2013-03-22 16:22:00,
2013-03-22 11:32:00,30.0,14.0,30.02,North,-999,-999.0,-999.0,50,-99.99,,,-99.99,,2013-03-22 16:32:00,
2013-03-22 11:42:00,30.0,14.0,30.02,North,-999,-999.0,-999.0,50,-99.99,,,-99.99,,2013-03-22 16:42:00,
2013-03-22 11:52:00,30.0,12.0,30.02,North,-999,-999.0,-999.0,47,-99.99,,,-99.99,,2013-03-22 16:52:00,
2013-03-22 12:03:00,32.0,13.0,30.02,North,-999,-999.0,-999.0,45,-99.99,,,-99.99,,2013-03-22 17:03:00,
2013-03-22 12:12:00,33.0,15.0,30.02,North,-999,-999.0,-999.0,48,-99.99,,,-99.99,,2013-03-22 17:12:00,
2013-03-22 12:23:00,33.0,15.0,30.02,North,-999,-999.0,-999.0,48,-99.99,,,-99.99,,2013-03-22 17:23:00,
2013-03-22 12:32:00,34.0,15.0,30.02,North,-999,-999.0,-999.0,46,-99.99,,,-99.99,,2013-03-22 17:32:00,
2013-03-22 12:42:00,34.0,15.0,30.02,North,-999,-999.0,-999.0,46,-99.99,,,-99.99,,2013-03-22 17:42:00,
2013-03-22 12:53:00,34.0,15.0,30.02,North,-999,-999.0,-999.0,45,-99.99,,,-99.99,,2013-03-22 17:53:00,
2013-03-22 13:02:00,34.0,13.0,30.02,North,-999,-999.0,-999.0,42,-99.99,,,-99.99,,2013-03-22 18:02:00,
2013-03-22 13:12:00,34.0,13.0,30.02,North,-999,-999.0,-999.0,42,-99.99,,,-99.99,,2013-03-22 18:12:00,
2013-03-22 13:22:00,34.0,14.0,30.02,North,-999,-999.0,-999.0,43,-99.99,,,-99.99,,2013-03-22 18:22:00,
2013-03-22 13:33:00,35.0,15.0,30.02,North,-999,-999.0,-999.0,44,-99.99,,,-99.99,,2013-03-22 18:33:00,
2013-03-22 13:42:00,35.0,15.0,30.02,North,-999,-999.0,-999.0,44,-99.99,,,-99.99,,2013-03-22 18:42:00,
2013-03-22 13:52:00,36.0,16.0,29.99,North,-999,-999.0,-999.0,43,-99.99,,,-99.99,,2013-03-22 18:52:00,
2013-03-22 14:02:00,36.0,16.0,29.99,North,-999,-999.0,-999.0,43,-99.99,,,-99.99,,2013-03-22 19:02:00,
2013-03-22 14:12:00,36.0,16.0,29.99,North,-999,-999.0,-999.0,43,-99.99,,,-99.99,,2013-03-22 19:12:00,
2013-03-22 14:22:00,37.0,17.0,29.99,North,-999,-999.0,-999.0,44,-99.99,,,-99.99,,2013-03-22 19:22:00,
2013-03-22 14:32:00,37.0,17.0,29.99,North,-999,-999.0,-999.0,43,-99.99,,,-99.99,,2013-03-22 19:32:00,
2013-03-22 14:42:00,37.0,17.0,29.99,North,-999,-999.0,-999.0,43,-99.99,,,-99.99,,2013-03-22 19:42:00,
2013-03-22 14:52:00,37.0,17.0,29.99,North,-999,-999.0,-999.0,43,-99.99,,,-99.99,,2013-03-22 19:52:00,
2013-03-22 15:02:00,38.0,17.0,29.96,North,-999,-999.0,-999.0,42,-99.99,,,-99.99,,2013-03-22 20:02:00,
2013-03-22 15:12:00,38.0,17.0,29.96,North,-999,-999.0,-999.0,42,-99.99,,,-99.99,,2013-03-22 20:12:00,
2013-03-22 15:22:00,38.0,17.0,29.96,North,-999,-999.0,-999.0,42,-99.99,,,-99.99,,2013-03-22 20:22:00,
2013-03-22 15:32:00,37.0,15.0,29.99,North,-999,-999.0,-999.0,40,-99.99,,,-99.99,,2013-03-22 20:32:00,
2013-03-22 15:42:00,37.0,15.0,29.99,North,-999,-999.0,-999.0,40,-99.99,,,-99.99,,2013-03-22 20:42:00,
2013-03-22 15:52:00,37.0,15.0,29.96,North,-999,-999.0,-999.0,40,-99.99,,,-99.99,,2013-03-22 20:52:00,
2013-03-22 16:03:00,37.0,15.0,29.99,North,-999,-999.0,-999.0,40,-99.99,,,-99.99,,2013-03-22 21:03:00,
2013-03-22 16:12:00,37.0,15.0,29.99,North,-999,-999.0,-999.0,40,-99.99,,,-99.99,,2013-03-22 21:12:00,
2013-03-22 16:22:00,37.0,15.0,29.99,North,-999,-999.0,-999.0,40,-99.99,,,-99.99,,2013-03-22 21:22:00,
2013-03-22 16:32:00,37.0,15.0,29.99,North,-999,-999.0,-999.0,40,-99.99,,,-99.99,,2013-03-22 21:32:00,
2013-03-22 16:43:00,37.0,15.0,29.99,North,-999,-999.0,-999.0,40,-99.99,,,-99.99,,2013-03-22 21:43:00,
2013-03-22 16:53:00,37.0,15.0,29.99,North,-999,-999.0,-999.0,40,-99.99,,,-99.99,,2013-03-22 21:53:00,
2013-03-22 17:03:00,36.0,13.0,29.99,North,-999,-999.0,-999.0,39,-99.99,,,-99.99,,2013-03-22 22:03:00,
2013-03-22 17:12:00,36.0,13.0,29.99,North,-999,-999.0,-999.0,39,-99.99,,,-99.99,,2013-03-22 22:12:00,
2013-03-22 17:23:00,36.0,14.0,29.99,North,-999,-999.0,-999.0,40,-99.99,,,-99.99,,2013-03-22 22:23:00,
2013-03-22 17:32:00,36.0,14.0,29.99,North,-999,-999.0,-999.0,40,-99.99,,,-99.99,,2013-03-22 22:32:00,
2013-03-22 17:42:00,36.0,14.0,29.99,North,-999,-999.0,-999.0,40,-99.99,,,-99.99,,2013-03-22 22:42:00,
2013-03-22 17:53:00,36.0,14.0,29.99,North,-999,-999.0,-999.0,40,-99.99,,,-99.99,,2013-03-22 22:53:00,
2013-03-22 18:02:00,35.0,14.0,29.99,North,-999,-999.0,-999.0,41,-99.99,,,-99.99,,2013-03-22 23:02:00,
2013-03-22 18:12:00,35.0,14.0,29.99,North,-999,-999.0,-999.0,41,-99.99,,,-99.99,,2013-03-22 23:12:00,
2013-03-22 18:22:00,35.0,13.0,29.99,North,-999,-999.0,-999.0,40,-99.99,,,-99.99,,2013-03-22 23:22:00,
2013-03-22 18:32:00,34.0,13.0,29.99,North,-999,-999.0,-999.0,41,-99.99,,,-99.99,,2013-03-22 23:32:00,
2013-03-22 18:42:00,34.0,13.0,29.99,North,-999,-999.0,-999.0,41,-99.99,,,-99.99,,2013-03-22 23:42:00,
2013-03-22 18:52:00,34.0,13.0,29.99,North,-999,-999.0,-999.0,41,-99.99,,,-99.99,,2013-03-22 23:52:00,
2013-03-22 19:02:00,33.0,12.0,29.99,North,-999,-999.0,-999.0,42,-99.99,,,-99.99,,2013-03-23 00:02:00,
2013-03-22 19:12:00,33.0,12.0,29.99,North,-999,-999.0,-999.0,42,-99.99,,,-99.99,,2013-03-23 00:12:00,
2013-03-22 19:23:00,31.0,11.0,29.99,North,-999,-999.0,-999.0,43,-99.99,,,-99.99,,2013-03-23 00:23:00,
2013-03-22 19:32:00,30.0,11.0,29.99,North,-999,-999.0,-999.0,44,-99.99,,,-99.99,,2013-03-23 00:32:00,
2013-03-22 19:42:00,30.0,11.0,29.99,North,-999,-999.0,-999.0,44,-99.99,,,-99.99,,2013-03-23 00:42:00,
2013-03-22 19:52:00,28.0,10.0,29.99,North,-999,-999.0,-999.0,46,-99.99,,,-99.99,,2013-03-23 00:52:00,
2013-03-22 20:03:00,26.0,9.0,30.02,North,-999,-999.0,-999.0,48,-99.99,,,-99.99,,2013-03-23 01:03:00,
2013-03-22 20:12:00,26.0,9.0,30.02,North,-999,-999.0,-999.0,48,-99.99,,,-99.99,,2013-03-23 01:12:00,
2013-03-22 20:22:00,25.0,9.0,29.99,North,-999,-999.0,-999.0,51,-99.99,,,-99.99,,2013-03-23 01:22:00,
2013-03-22 20:32:00,25.0,10.0,30.02,North,-999,-999.0,-999.0,53,-99.99,,,-99.99,,2013-03-23 01:32:00,
2013-03-22 20:42:00,25.0,10.0,30.02,North,-999,-999.0,-999.0,53,-99.99,,,-99.99,,2013-03-23 01:42:00,
2013-03-22 20:52:00,24.0,9.0,30.02,North,-999,-999.0,-999.0,53,-99.99,,,-99.99,,2013-03-23 01:52:00,
2013-03-22 21:02:00,24.0,10.0,30.02,North,-999,-999.0,-999.0,54,-99.99,,,-99.99,,2013-03-23 02:02:00,
2013-03-22 21:12:00,24.0,10.0,30.02,North,-999,-999.0,-999.0,54,-99.99,,,-99.99,,2013-03-23 02:12:00,
2013-03-22 21:22:00,24.0,10.0,30.02,North,-999,-999.0,-999.0,54,-99.99,,,-99.99,,2013-03-23 02:22:00,
2013-03-22 21:32:00,24.0,10.0,30.02,North,-999,-999.0,-999.0,55,-99.99,,,-99.99,,2013-03-23 02:32:00,
2013-03-22 21:42:00,24.0,10.0,30.02,North,-999,-999.0,-999.0,55,-99.99,,,-99.99,,2013-03-23 02:42:00,
2013-03-22 21:52:00,24.0,11.0,30.02,North,-999,-999.0,-999.0,56,-99.99,,,-99.99,,2013-03-23 02:52:00,
2013-03-22 22:02:00,24.0,11.0,30.05,North,-999,-999.0,-999.0,56,-99.99,,,-99.99,,2013-03-23 03:02:00,
2013-03-22 22:12:00,24.0,11.0,30.05,North,-999,-999.0,-999.0,56,-99.99,,,-99.99,,2013-03-23 03:12:00,
2013-03-22 22:22:00,24.0,11.0,30.05,North,-999,-999.0,-999.0,57,-99.99,,,-99.99,,2013-03-23 03:22:00,
2013-03-22 22:33:00,23.0,10.0,30.02,North,-999,-999.0,-999.0,58,-99.99,,,-99.99,,2013-03-23 03:33:00,
2013-03-22 22:43:00,23.0,10.0,30.02,North,-999,-999.0,-999.0,58,-99.99,,,-99.99,,2013-03-23 03:43:00,
2013-03-22 22:53:00,22.0,10.0,30.05,North,-999,-999.0,-999.0,59,-99.99,,,-99.99,,2013-03-23 03:53:00,
2013-03-22 23:02:00,22.0,10.0,30.05,North,-999,-999.0,-999.0,60,-99.99,,,-99.99,,2013-03-23 04:02:00,
2013-03-22 23:12:00,22.0,10.0,30.05,North,-999,-999.0,-999.0,60,-99.99,,,-99.99,,2013-03-23 04:12:00,
2013-03-22 23:23:00,22.0,10.0,30.05,North,-999,-999.0,-999.0,58,-99.99,,,-99.99,,2013-03-23 04:23:00,
2013-03-22 23:32:00,22.0,10.0,30.05,North,-999,-999.0,-999.0,59,-99.99,,,-99.99,,2013-03-23 04:32:00,
2013-03-22 23:43:00,22.0,10.0,30.05,North,-999,-999.0,-999.0,59,-99.99,,,-99.99,,2013-03-23 04:43:00,
2013-03-22 23:53:00,22.0,10.0,30.05,North,-999,-999.0,-999.0,59,-99.99,,,-99.99,,2013-03-23 04:53:00,